Lid_Strength_Index
2 2 2 3 3 4 3 3 2 2 2 1 0 0 0 0 1 1 1 1 2 2
2 2 2 2 2 2 3 2 3 3 2 2 2 1 1 1 2 1 2 1 2 1
2 2 2 1 2 2 2 2 2 3 3 2 2 2 3 2 1 2 3 2 3 3
1 1 1 1 1 1 1 2 2 2 3 2 2 2 2 3 2 3 3 2 3 2
1 1 1 1 1 1 2 1 2 1 2 2 2 2 2 2 3 2 3 2 3 2
6 3 2 2 1 1 1 2 1 1 2 1 1 2 2 2 2 2 2 2 3 3
7 6 5 2 2 2 2 2 2 2 2 2 2 2 2 2 2 2 2 3 3 3
8 7 6 5 3 2 2 2 2 2 2 2 2 2 3 3 3 3 3 4 3 4
8 8 7 6 5 4 3 2 3 3 2 2 3 6 8 5 3 4 4 6 7 8
9 9 8 8 7 7 5 4 3 3 3 4 4 9 9 9 3 5 5 6 9 12
11 11 10 9 8 7 6 5 5 4 4 4 5 10 10 10 4 6 7 8 9 10
13 13 11 10 9 8 7 8 8 9 8 8 8 10 10 10 9 11 11 10 10 10
12 13 12 11 9 8 9 9 10 11 11 11 10 11 11 10 12 14 14 14 13 13
11 11 11 11 11 10 10 10 11 12 12 12 12 12 11 10 11 12 13 14 13 14